This is the latest recevied weather packets stored in our database for station/object N4ZIQ. If no packets are shown the sender has not sent any weather packets the latest 10 day(s).
| Time | Temp. | Humidity | Pressure | Rain* | Wind** | Luminosity | Snow |
|---|---|---|---|---|---|---|---|
| 1778161245 | 27.22° C | 73% | 1016.6 hPa | 0 mm | - | 522 W/m² | - |
| 1778160949 | 26.67° C | 75% | 1016.5 hPa | 0 mm | - | 508 W/m² | - |
| 1778160654 | 26.11° C | 75% | 1016.5 hPa | 0 mm | - | 492 W/m² | - |
| 1778160347 | 26.11° C | 77% | 1016.5 hPa | 0 mm | - | 478 W/m² | - |
| 1778160045 | 26.11° C | 77% | 1016.5 hPa | 0 mm | - | 461 W/m² | - |
| 1778159752 | 26.11° C | 77% | 1016.4 hPa | 0 mm | - | 443 W/m² | - |
| 1778159449 | 25.56° C | 78% | 1016.4 hPa | 0 mm | - | 432 W/m² | - |
| 1778159145 | 25.56° C | 77% | 1016.4 hPa | 0 mm | - | 417 W/m² | - |
| 1778158852 | 25.56° C | 78% | 1016.4 hPa | 0 mm | - | 399 W/m² | - |
| 1778158547 | 25° C | 79% | 1016.4 hPa | 0 mm | - | 383 W/m² | - |
| 1778158245 | 24.44° C | 79% | 1016.4 hPa | 0 mm | - | 366 W/m² | - |
| 1778157953 | 24.44° C | 81% | 1016.6 hPa | 0 mm | - | 346 W/m² | - |
| 1778157645 | 23.89° C | 82% | 1016.5 hPa | 0 mm | - | 327 W/m² | - |
| 1778157349 | 23.89° C | 84% | 1016.6 hPa | 0 mm | - | 304 W/m² | - |
| 1778157049 | 23.33° C | 85% | 1016.6 hPa | 0 mm | - | 243 W/m² | - |
| 1778156745 | 23.33° C | 86% | 1016.6 hPa | 0 mm | - | 237 W/m² | - |
| 1778156445 | 22.78° C | 88% | 1016.5 hPa | 0 mm | - | 200 W/m² | - |
| 1778156152 | 22.22° C | 88% | 1016.6 hPa | 0 mm | - | 149 W/m² | - |
| 1778155849 | 22.22° C | 90% | 1016.6 hPa | 0 mm | - | 128 W/m² | - |
| 1778155545 | 22.22° C | 92% | 1016.5 hPa | 0 mm | - | 127 W/m² | - |
| 1778155253 | 21.67° C | 93% | 1016.5 hPa | 0 mm | - | 134 W/m² | - |
| 1778154947 | 21.11° C | 94% | 1016.3 hPa | 0 mm | - | 113 W/m² | - |
| 1778154646 | 20.56° C | 95% | 1016.3 hPa | 0 mm | - | 109 W/m² | - |
| 1778154355 | 19.44° C | 95% | 1016.3 hPa | 0 mm | - | 88 W/m² | - |
| 1778154045 | 18.89° C | 95% | 1016.3 hPa | 0 mm | - | 77 W/m² | - |
* Rain latest hour (hover to see other rain measurements)
** Current wind speed in m/s (hover to see current wind gust speed)